Location: Morlupo
(42.1333°N, 12.5000°E)
Time: 15:36:37
(UTC+00:00)

Milstar 3 Cent rocket - Pass Details

Date: 18 September 2020
Orbit: 707 x 5145 km, 28.3° (Epoch: 25 October)

Event Time Altitude Azimuth Distance (km) Brightness Sun altitude
Rises 19:34:49 0° 232° (SW) 3,783 5.9 -25.9°
Reaches altitude 10° 19:38:53 10° 210° (SSW) 2,424 4.6 -26.6°
Enters shadow 19:39:35 12° 203° (SSW) 2,242 4.3 -26.7°
